DLH4MK EDDL-EDDF

Flight info

Callsign DLH4MK
Flight time N/A
Altitude 23000
Route COL5Z/05R COL T911 ROLIS ROLIS5A
Aircraft A320/M-SDE3FGHIRWY/LB1

Departure

Time 2026-05-06 07:14
Airport Düsseldorf Airport (EDDL)

Arrival

Time N/A
Airport Frankfurt Main Airport (EDDF)
Time Latitude Longitude Altitude Speed Heading
2026-05-06 06:53 51.27954 6.75933 137 ft 0 kts 91°
2026-05-06 06:53 51.27953 6.75928 137 ft 0 kts 91°
2026-05-06 07:10 51.27953 6.75974 137 ft 7 kts 91°
2026-05-06 07:10 51.27975 6.76044 137 ft 9 kts 18°
2026-05-06 07:10 51.28049 6.76052 137 ft 12 kts
2026-05-06 07:11 51.28107 6.75966 137 ft 14 kts 270°
2026-05-06 07:11 51.28057 6.75863 137 ft 12 kts 226°
2026-05-06 07:11 51.27997 6.75744 137 ft 15 kts 230°
2026-05-06 07:11 51.27924 6.75603 137 ft 18 kts 231°
2026-05-06 07:12 51.27845 6.75435 137 ft 15 kts 231°
2026-05-06 07:12 51.27841 6.75351 136 ft 6 kts 308°
2026-05-06 07:12 51.27899 6.75297 134 ft 13 kts 327°
2026-05-06 07:12 51.27986 6.75257 131 ft 11 kts 30°
2026-05-06 07:13 51.28038 6.75362 128 ft 16 kts 56°
2026-05-06 07:13 51.28214 6.75733 134 ft 76 kts 52°
2026-05-06 07:13 51.28661 6.76673 135 ft 133 kts 52°
2026-05-06 07:13 51.29279 6.77980 541 ft 146 kts 51°
2026-05-06 07:14 51.29882 6.79264 1308 ft 144 kts 51°
2026-05-06 07:14 51.30510 6.80584 1789 ft 158 kts 51°
2026-05-06 07:14 51.31215 6.82045 2207 ft 174 kts 52°
2026-05-06 07:14 51.31990 6.83631 2661 ft 188 kts 51°
2026-05-06 07:15 51.32826 6.85328 3162 ft 200 kts 51°
2026-05-06 07:15 51.33711 6.87128 3645 ft 214 kts 53°
2026-05-06 07:15 51.34594 6.89185 4125 ft 235 kts 57°
2026-05-06 07:15 51.35265 6.91678 4582 ft 258 kts 80°
2026-05-06 07:16 51.35148 6.94566 5345 ft 267 kts 105°
2026-05-06 07:16 51.34715 6.97479 6206 ft 272 kts 102°
2026-05-06 07:16 51.34387 7.00492 7090 ft 278 kts 100°
2026-05-06 07:16 51.34099 7.03580 8034 ft 284 kts 99°